Banquereau: Past 24 Hour Conditions

 

Natashquan Airport

05:00 PM EDT 31 July 2014
This table is a summary of hourly weather conditions for the past 24 hours.
Date / Time
(EDT)
Wind(knots) Conditions Visibility(km) Pressure(kPa) Air tempC) Relative humidity(%) Dew pointC)
31 July 2014
17:00 E 12 Cloudy 15 101.7 19 96 19
16:00 E 10 Mist 5 101.8 19 95 19
15:00 ENE 9 gust 15 Cloudy 16 101.8 20 94 19
14:00 E 13 Cloudy 16 101.8 20 92 19
13:00 E 15 Light Rain 6 101.8 18 94 17
12:00 ESE 10 gust 16 Rain 6 102.0 18 93 17
11:00 E 8 Cloudy 16 102.0 19 93 18
10:00 ESE 6 Light Rain 10 102.1 18 96 17
9:00 ESE 11 gust 17 Light Rain 5 102.0 18 97 17
8:00 E 8 Cloudy 16 102.0 18 94 17
7:00 E 8 Mist 10 102.1 18 97 17
6:00 ENE 5 Fog 0.2 102.0 17 98 16
5:00 ENE 4 Fog 0.2 102.0 16 97 15
4:00 ENE 3 Mostly Cloudy 16 102.0 15 96 14
3:00 ENE 2 Mainly Clear 16 102.0 15 95 14
2:00 ESE 2 Cloudy 16 102.0 16 92 15
1:00 SSE 3 Light Rain 16 102.0 16 91 15
0:00 SSE 2 Cloudy 16 102.0 17 87 15
30 July 2014
23:00 SW 4 Cloudy 16 102.0 17 86 15
22:00 SSW 4 Mostly Cloudy 16 102.0 17 88 15
21:00 WSW 3 Clear 16 102.0 17 82 14
20:00 SE 5 Clear 16 101.9 18 82 15
19:00 SE 3 Sunny 16 101.9 19 75 15
18:00 SE 6 Sunny 16 101.9 21 63 14
17:00 SSE 7 Sunny 16 101.9 21 61 14
 
Map of Atlantic - Newfoundland marine weather areas Southwestern Grand Banks - 44138 Banquereau - 44139 Tail of the Bank - 44140 Nickerson Bank - 44251 Northeast Burgeo Bank - 44255 Blanc-Sablon Airport Cap Whittle Chevery Natashquan Airport Heath Point Miscou Island Grand Étang Ingonish Beach North Mountain St.Paul Island J.A. Douglas McCurdy Sydney Airport Charlottetown Airport East Point North Cape Argentia Bonavista Burgeo Cape Race Corner Brook Daniel's Harbour Englee Ferolle Point La Scie Port aux Basques Rocky Harbour Sagona Island St. Anthony Airport St. John's Int'l Airport St. Lawrence Stephenville Airport Twillingate Winterland Wreckhouse Cartwright Airport Mary's Harbour Grates Cove Pool's Island Marticot Island Long Pond Îles de la Madeleine Airport
Legend: buoyBuoy land stationLand Station